Weather History for Juliana Airport, St. Martin

Change the Weather History Date:

Tuesday, April 1, 2014

  Actual Average Record
Temperature  
Mean Temperature 80 °F -  
Max Temperature 83 °F 83 °F 86 °F (1999)
Min Temperature 76 °F 74 °F 69 °F (2008)
Cooling Degree Days 14    
Growing Degree Days 30 (Base 50)    
Moisture  
Dew Point 71 °F    
Average Humidity 72    
Maximum Humidity 78    
Minimum Humidity 61    
Precipitation  
Precipitation 0.00 in 0.09 in - ()
Sea Level Pressure  
Sea Level Pressure 30.03 in    
Wind  
Wind Speed 6 mph ()    
Max Wind Speed 10 mph    
Max Gust Speed -    
Visibility 7.0 miles    
Events      
Averages and records for this station are not official NWS values.
T = Trace of Precipitation, MM = Missing Value Source: Averaged Metar Reports

Daily Weather History Graph

Daily Weather History Graph

Search for Another Location

Airport:

Trip Planner

Search our weather history database for the weather conditions in past years. The results will help you decide how hot, cold, wet, or windy it might be!

Date:

Astronomy

Apr. 01, 2014 Rise Set
Actual Time 6:06 AM AST 6:25 PM AST
Civil Twilight 5:44 AM AST 6:47 PM AST
Nautical Twilight 5:19 AM AST 7:13 PM AST
Astronomical Twilight 4:53 AM AST 7:38 PM AST
Moon 7:22 AM AST (4/1) 8:23 PM AST (4/1)
Length of Visible Light 13h 02m
Length of Day
12h 19m
Waxing Crescent, 4% of the Moon is Illuminated
Apr 1
Waxing Crescent
Apr 7
First Quarter
Apr 15
Full
Apr 22
Last Quarter
Apr 29
New

Hourly Weather History & Observations

Time (AST) Temp. Heat Index Dew Point Humidity Pressure Visibility Wind Dir Wind Speed Gust Speed Precip Events Conditions
12:00 AM 78.8 °F - 69.8 °F 74% 30.04 in 6.2 mi East 8.1 mph - N/A   Partly Cloudy
1:00 AM 78.8 °F - 69.8 °F 74% 30.01 in 6.2 mi East 6.9 mph - N/A   Partly Cloudy
2:00 AM 78 °F - 69 °F 68% 30.01 in 25 mi ESE 5.8 mph - -   Scattered Clouds
2:00 AM 77.0 °F - 69.8 °F 78% 30.01 in 6.2 mi ESE 5.8 mph - N/A   Partly Cloudy
3:00 AM 77.0 °F - 69.8 °F 78% 30.01 in 6.2 mi ESE 5.8 mph - N/A   Partly Cloudy
4:00 AM 77.0 °F - 69.8 °F 78% 30.01 in 6.2 mi Variable 3.5 mph - N/A   Scattered Clouds
5:00 AM 77 °F - 69 °F 70% 30.02 in 25 mi East 3.5 mph - -   Scattered Clouds
5:00 AM 77.0 °F - 69.8 °F 78% 30.01 in 6.2 mi East 3.5 mph - N/A   Partly Cloudy
6:00 AM 77.0 °F - 69.8 °F 78% 30.01 in 6.2 mi East 5.8 mph - N/A   Partly Cloudy
7:00 AM 78.8 °F - 69.8 °F 74% 30.04 in 6.2 mi East 4.6 mph - N/A   Scattered Clouds
8:00 AM 80 °F - 70 °F 65% 30.06 in 22 mi ESE 5.8 mph - -   Scattered Clouds
8:00 AM 80.6 °F 83.9 °F 69.8 °F 70% 30.04 in 6.2 mi ESE 5.8 mph - N/A   Partly Cloudy
9:00 AM 80.6 °F 83.9 °F 69.8 °F 70% 30.06 in 6.2 mi SSE 9.2 mph - N/A   Scattered Clouds
10:00 AM 82.4 °F 86.3 °F 69.8 °F 66% 30.06 in 6.2 mi SE 9.2 mph - N/A   Partly Cloudy
11:00 AM 81 °F - 71 °F 63% 30.07 in 25 mi SE 9.2 mph - -   Partly Cloudy
11:00 AM 80.6 °F 83.9 °F 69.8 °F 70% 30.06 in 6.2 mi SE 9.2 mph - N/A   Scattered Clouds
12:00 PM 82.4 °F 87.2 °F 71.6 °F 70% 30.04 in 6.2 mi SE 9.2 mph - N/A   Scattered Clouds
1:00 PM 82.4 °F 87.2 °F 71.6 °F 70% 30.04 in 6.2 mi SE 10.4 mph - N/A   Partly Cloudy
2:00 PM 83 °F - 72 °F 61% 30.02 in 16 mi SE 8.1 mph - -   Scattered Clouds
2:00 PM 82.4 °F 87.2 °F 71.6 °F 70% 30.01 in 6.2 mi SE 8.1 mph - N/A   Partly Cloudy
3:00 PM 82.4 °F 87.2 °F 71.6 °F 70% 29.98 in 6.2 mi SE 10.4 mph - N/A   Partly Cloudy
4:00 PM 82.4 °F 87.2 °F 71.6 °F 70% 29.98 in 6.2 mi SE 9.2 mph - N/A   Partly Cloudy
5:00 PM 82 °F - 71 °F 62% 30.00 in 16 mi SE 6.9 mph - -   Scattered Clouds
5:00 PM 82.4 °F 87.2 °F 71.6 °F 70% 29.98 in 6.2 mi SE 6.9 mph - N/A   Partly Cloudy
6:00 PM 80.6 °F 83.9 °F 69.8 °F 70% 30.01 in 6.2 mi SE 4.6 mph - N/A   Partly Cloudy
7:00 PM 80.6 °F 83.9 °F 69.8 °F 70% 30.01 in 6.2 mi SE 5.8 mph - N/A   Partly Cloudy
8:00 PM 79 °F - 71 °F 71% 30.04 in 22 mi SE 4.6 mph - -   Partly Cloudy
8:00 PM 78.8 °F - 71.6 °F 78% 30.04 in 6.2 mi SE 4.6 mph - N/A   Scattered Clouds
9:00 PM 78.8 °F - 71.6 °F 78% 30.04 in 6.2 mi SE 4.6 mph - N/A   Partly Cloudy
10:00 PM 78.8 °F - 71.6 °F 78% 30.06 in 6.2 mi Variable 3.5 mph - N/A   Partly Cloudy
11:00 PM 79 °F - 71 °F 70% 30.07 in 22 mi 1.2 mph - -   Scattered Clouds
11:00 PM 78.8 °F - 71.6 °F 78% 30.06 in 6.2 mi Variable 1.2 mph - N/A   Partly Cloudy